{"data":{"norad_id":66331,"intl_designator":"2025-253N","name":"STARLINK-35257","alt_names":[],"object_type":"PAYLOAD","status":"ACTIVE","operator":null,"country":"US","launch_date":"2025-11-06","launch_site_code":"AFETR","launch_vehicle":null,"mission":null,"orbit_class":"UNKNOWN","rcs_meters":null,"size_class":null,"mass_kg":null,"dimensions":null,"purposes":["comms"],"wikipedia_slug":null,"has_3d_model":false,"image_url":null,"decayed_at":null,"tle_current":{"epoch":"2026-05-25T00:48:48.644640Z","epoch_age_seconds":78882,"freshness":"FRESH","line1":"1 66331U 25253N   26145.03389635  .00014830  00000+0  54718-3 0  9994","line2":"2 66331  42.9965 141.0660 0000628 247.8058 112.2727 15.27589897 31922","mean_motion":15.27589897,"eccentricity":6.28e-5,"inclination_deg":42.9965,"raan_deg":141.066,"arg_perigee_deg":247.8058,"mean_anomaly_deg":112.2727,"bstar":0.00054718,"rev_number":3192,"period_min":94.266137975119,"perigee_km":482.58858039547,"apogee_km":483.45034164698,"semimajor_km":6861.1564610212,"source":"CELESTRAK","updated_at":"2026-05-25T13:38:21.169072Z"}}}